TimeMST,TemperatureF,Dew PointF,Humidity,Sea Level PressureIn,VisibilityMPH,Wind Direction,Wind SpeedMPH,Gust SpeedMPH,PrecipitationIn,Events,Conditions,WindDirDegrees,DateUTC
12:15 AM,39.2,28.4,65,30.27,10.0,Calm,Calm,-,N/A,,Clear,0,2012-11-05 07:15:00
12:35 AM,37.4,28.4,70,30.27,10.0,West,4.6,-,N/A,,Clear,270,2012-11-05 07:35:00
12:55 AM,39.2,30.2,70,30.26,10.0,Calm,Calm,-,N/A,,Clear,0,2012-11-05 07:55:00
1:15 AM,39.2,28.4,65,30.26,10.0,Calm,Calm,-,N/A,,Clear,0,2012-11-05 08:15:00
1:35 AM,39.2,28.4,65,30.25,10.0,Calm,Calm,-,N/A,,Clear,0,2012-11-05 08:35:00
1:55 AM,46.4,30.2,53,30.25,10.0,West,13.8,19.6,N/A,,Clear,260,2012-11-05 08:55:00
2:15 AM,50.0,32.0,50,30.24,10.0,West,5.8,-,N/A,,Clear,260,2012-11-05 09:15:00
2:55 AM,53.6,33.8,47,30.22,10.0,West,10.4,20.7,N/A,,Clear,280,2012-11-05 09:55:00
3:15 AM,53.6,33.8,47,30.21,10.0,West,16.1,20.7,N/A,,Clear,260,2012-11-05 10:15:00
3:35 AM,53.6,32.0,44,30.21,10.0,West,13.8,26.5,N/A,,Clear,260,2012-11-05 10:35:00
3:55 AM,53.6,32.0,44,30.21,10.0,WSW,15.0,25.3,N/A,,Clear,250,2012-11-05 10:55:00
4:15 AM,53.6,30.2,41,30.22,10.0,West,9.2,20.7,N/A,,Clear,270,2012-11-05 11:15:00
4:35 AM,51.8,30.2,44,30.19,10.0,West,13.8,21.9,N/A,,Clear,260,2012-11-05 11:35:00
4:55 AM,51.8,32.0,47,30.19,10.0,West,6.9,-,N/A,,Clear,260,2012-11-05 11:55:00
5:15 AM,-9999,-9999,N/A,30.17,10.0,West,13.8,23.0,N/A,,Clear,280,2012-11-05 12:15:00
5:35 AM,-9999,-9999,N/A,30.17,10.0,West,16.1,21.9,N/A,,Clear,280,2012-11-05 12:35:00
5:55 AM,-9999,-9999,N/A,30.17,10.0,West,17.3,26.5,N/A,,Clear,270,2012-11-05 12:55:00
6:15 AM,-9999,-9999,N/A,30.18,10.0,WNW,15.0,26.5,N/A,,Clear,290,2012-11-05 13:15:00
6:35 AM,-9999,-9999,N/A,30.18,10.0,West,13.8,24.2,N/A,,Clear,270,2012-11-05 13:35:00
6:55 AM,-9999,-9999,N/A,30.18,10.0,West,18.4,29.9,N/A,,Clear,260,2012-11-05 13:55:00
7:15 AM,-9999,-9999,N/A,30.19,10.0,WSW,18.4,35.7,N/A,,Clear,250,2012-11-05 14:15:00
7:35 AM,-9999,-9999,N/A,30.19,10.0,WSW,19.6,31.1,N/A,,Clear,250,2012-11-05 14:35:00
7:55 AM,-9999,-9999,N/A,30.18,10.0,West,20.7,38.0,N/A,,Clear,260,2012-11-05 14:55:00
8:15 AM,-9999,-9999,N/A,30.18,10.0,WSW,25.3,35.7,N/A,,Clear,250,2012-11-05 15:15:00
8:35 AM,-9999,-9999,N/A,30.18,10.0,WSW,20.7,34.5,N/A,,Clear,250,2012-11-05 15:35:00
8:55 AM,-9999,-9999,N/A,30.19,10.0,WSW,19.6,31.1,N/A,,Clear,250,2012-11-05 15:55:00
9:15 AM,-9999,-9999,N/A,30.20,10.0,WSW,24.2,33.4,N/A,,Clear,250,2012-11-05 16:15:00
9:35 AM,-9999,-9999,N/A,30.19,10.0,West,16.1,31.1,N/A,,Clear,260,2012-11-05 16:35:00
9:55 AM,64.4,62.6,94,30.17,10.0,West,21.9,32.2,N/A,,Clear,260,2012-11-05 16:55:00
10:15 AM,57.2,33.8,41,30.15,5.0,West,19.6,32.2,N/A,,Clear,260,2012-11-05 17:15:00
10:35 AM,57.2,33.8,41,30.16,10.0,West,26.5,39.1,N/A,,Clear,260,2012-11-05 17:35:00
10:55 AM,57.2,33.8,41,30.16,10.0,West,23.0,36.8,N/A,,Clear,260,2012-11-05 17:55:00
11:15 AM,59.0,33.8,39,30.15,10.0,WSW,23.0,33.4,N/A,,Clear,250,2012-11-05 18:15:00
11:35 AM,59.0,33.8,39,30.14,10.0,WSW,15.0,29.9,N/A,,Clear,250,2012-11-05 18:35:00
11:55 AM,60.8,33.8,36,30.14,10.0,West,13.8,31.1,N/A,,Clear,260,2012-11-05 18:55:00
12:15 PM,60.8,33.8,36,30.14,10.0,West,16.1,31.1,N/A,,Clear,260,2012-11-05 19:15:00
12:35 PM,60.8,33.8,36,30.13,10.0,West,15.0,25.3,N/A,,Clear,270,2012-11-05 19:35:00
12:55 PM,60.8,33.8,36,30.13,10.0,West,15.0,29.9,N/A,,Clear,260,2012-11-05 19:55:00
1:15 PM,60.8,33.8,36,30.12,10.0,WSW,13.8,27.6,N/A,,Clear,250,2012-11-05 20:15:00
1:35 PM,60.8,33.8,36,30.13,10.0,WSW,11.5,19.6,N/A,,Clear,250,2012-11-05 20:35:00
2:15 PM,60.8,30.2,31,30.11,10.0,WSW,13.8,23.0,N/A,,Clear,250,2012-11-05 21:15:00
2:55 PM,60.8,30.2,31,30.10,10.0,WSW,19.6,28.8,N/A,,Clear,240,2012-11-05 21:55:00
3:15 PM,62.6,30.2,30,30.11,10.0,SW,11.5,23.0,N/A,,Clear,230,2012-11-05 22:15:00
3:35 PM,62.6,30.2,30,30.11,10.0,West,16.1,21.9,N/A,,Clear,260,2012-11-05 22:35:00
3:55 PM,62.6,28.4,27,30.11,10.0,West,12.7,25.3,N/A,,Clear,260,2012-11-05 22:55:00
4:15 PM,62.6,28.4,27,30.12,10.0,West,12.7,18.4,N/A,,Clear,280,2012-11-05 23:15:00
4:35 PM,62.6,28.4,27,30.13,10.0,West,9.2,-,N/A,,Clear,270,2012-11-05 23:35:00
4:55 PM,62.6,26.6,26,30.13,10.0,West,12.7,18.4,N/A,,Clear,280,2012-11-05 23:55:00
5:15 PM,62.6,26.6,26,30.15,10.0,West,11.5,18.4,N/A,,Clear,280,2012-11-06 00:15:00
5:35 PM,60.8,26.6,27,30.17,10.0,North,4.6,-,N/A,,Clear,360,2012-11-06 00:35:00
5:55 PM,59.0,26.6,29,30.17,10.0,SSW,8.1,-,N/A,,Clear,210,2012-11-06 00:55:00
6:15 PM,60.8,30.2,31,30.17,10.0,WSW,6.9,-,N/A,,Clear,250,2012-11-06 01:15:00
6:55 PM,59.0,30.2,34,30.18,10.0,WSW,13.8,21.9,N/A,,Clear,250,2012-11-06 01:55:00
7:15 PM,60.8,30.2,31,30.18,10.0,West,12.7,24.2,N/A,,Clear,260,2012-11-06 02:15:00
7:35 PM,59.0,30.2,34,30.18,10.0,WSW,16.1,24.2,N/A,,Clear,250,2012-11-06 02:35:00
7:55 PM,59.0,30.2,34,30.18,10.0,West,12.7,-,N/A,,Clear,270,2012-11-06 02:55:00
8:15 PM,59.0,32.0,36,30.18,10.0,WSW,18.4,27.6,N/A,,Clear,250,2012-11-06 03:15:00
8:35 PM,59.0,32.0,36,30.19,10.0,WSW,15.0,23.0,N/A,,Clear,250,2012-11-06 03:35:00
8:55 PM,57.2,32.0,38,30.20,10.0,WSW,16.1,23.0,N/A,,Clear,250,2012-11-06 03:55:00
9:15 PM,57.2,32.0,38,30.19,10.0,West,17.3,29.9,N/A,,Clear,270,2012-11-06 04:15:00
9:35 PM,57.2,32.0,38,30.19,10.0,West,18.4,29.9,N/A,,Clear,270,2012-11-06 04:35:00
9:55 PM,57.2,32.0,38,30.19,10.0,West,16.1,28.8,N/A,,Clear,260,2012-11-06 04:55:00
10:15 PM,57.2,32.0,38,30.18,10.0,West,12.7,21.9,N/A,,Clear,260,2012-11-06 05:15:00
10:35 PM,57.2,32.0,38,30.18,10.0,West,16.1,25.3,N/A,,Clear,260,2012-11-06 05:35:00
11:15 PM,57.2,30.2,36,30.18,10.0,West,16.1,23.0,N/A,,Clear,270,2012-11-06 06:15:00
11:35 PM,57.2,30.2,36,30.17,10.0,West,20.7,29.9,N/A,,Clear,260,2012-11-06 06:35:00
11:55 PM,57.2,30.2,36,30.18,10.0,West,15.0,26.5,N/A,,Clear,270,2012-11-06 06:55:00